This is the latest recevied weather packets stored in our database for station/object SQ9RHX-13. If no packets are shown the sender has not sent any weather packets the latest 10 day(s).
| Time | Temp. | Humidity | Pressure | Rain* | Wind** | Luminosity | Snow |
|---|---|---|---|---|---|---|---|
| 1777469705 | 10.56° C | 30% | 1032.8 hPa | 0 mm | - | 505 W/m² | - |
| 1777469405 | 12.22° C | 27% | 1032.8 hPa | 0 mm | - | 115 W/m² | - |
| 1777469103 | 11.67° C | 28% | 1032.7 hPa | 0 mm | - | 422 W/m² | - |
| 1777468804 | 11.11° C | 28% | 1032.8 hPa | 0 mm | - | 576 W/m² | - |
| 1777468505 | 11.11° C | 27% | 1032.6 hPa | 0 mm | - | 124 W/m² | - |
| 1777468204 | 10.56° C | 30% | 1032.8 hPa | 0 mm | - | 559 W/m² | - |
| 1777467905 | 11.67° C | 28% | 1032.8 hPa | 0 mm | - | 129 W/m² | - |
| 1777467603 | 11.67° C | 28% | 1032.7 hPa | 0 mm | - | 256 W/m² | - |
| 1777467303 | 12.22° C | 27% | 1032.8 hPa | 0 mm | - | 182 W/m² | - |
| 1777467003 | 12.22° C | 27% | 1032.7 hPa | 0 mm | - | 646 W/m² | - |
| 1777466703 | 11.67° C | 29% | 1032.7 hPa | 0 mm | - | 609 W/m² | - |
| 1777466405 | 11.67° C | 28% | 1032.9 hPa | 0 mm | - | 607 W/m² | - |
| 1777466105 | 11.11° C | 28% | 1032.6 hPa | 0 mm | - | 605 W/m² | - |
| 1777465804 | 11.67° C | 27% | 1032.8 hPa | 0 mm | - | 144 W/m² | - |
| 1777465505 | 12.22° C | 27% | 1032.9 hPa | 0 mm | - | 697 W/m² | - |
| 1777465202 | 11.67° C | 29% | 1032.5 hPa | 0 mm | - | 638 W/m² | - |
| 1777464903 | 12.22° C | 28% | 1032.5 hPa | 0 mm | - | 632 W/m² | - |
| 1777464605 | 12.22° C | 26% | 1032.7 hPa | 0 mm | - | 622 W/m² | - |
| 1777464303 | 12.22° C | 26% | 1032.5 hPa | 0 mm | - | 621 W/m² | - |
| 1777464004 | 12.78° C | 25% | 1032.8 hPa | 0 mm | - | 621 W/m² | - |
| 1777463702 | 12.22° C | 26% | 1032.6 hPa | 0 mm | - | 628 W/m² | - |
| 1777463403 | 12.22° C | 26% | 1032.6 hPa | 0 mm | - | 632 W/m² | - |
| 1777463103 | 11.67° C | 27% | 1032.7 hPa | 0 mm | - | 639 W/m² | - |
| 1777462804 | 11.11° C | 25% | 1032.8 hPa | 0 mm | - | 646 W/m² | - |
| 1777462504 | 11.67° C | 26% | 1032.9 hPa | 0 mm | - | 649 W/m² | - |
* Rain latest hour (hover to see other rain measurements)
** Current wind speed in m/s (hover to see current wind gust speed)